Home   Weather   Bismarck   Past weeks
Flag for USA

Past Weather in Bismarck, North Dakota, USA — Yesterday and Last 2 Weeks

Now
40 °F

Clear.


Feels Like: 40 °F
Forecast: 46 / 33 °F
Wind: No wind

Location: Bismarck Municipal Airport

Current Time: Oct 19, 2019 at 10:30:22 pm

Latest Report: Oct 19, 2019 at 8:52 pm


Visibility: 10 mi

Pressure: 29.69 "Hg (27.87 "Hg at 513m altitude)

Humidity: 77%

Dew Point: 33 °F

Location of BismarckLocation

Past Weather in Bismarck — Graph

°F

Bismarck Temperature Yesterday

Maximum temperature yesterday: 61 °F (at 1:52 pm)
Minimum temperature yesterday: 39 °F (at 5:52 am)
Average temperature yesterday: 49 °F

High & Low Weather Summary for the Past Weeks

 TemperatureHumidityPressure
High77 °F (Oct 8, 3:52 pm)100% (Oct 5, 5:52 am)30.28 "Hg (Oct 5, 5:52 am)
Low23 °F (Oct 14, 5:52 am)28% (Oct 7, 3:52 pm)29.39 "Hg (Oct 18, 3:52 am)
Average40 °F77%29.89 "Hg
* Reported Oct 4 8:52 pm — Oct 19 8:52 pm, Bismarck. Weather by CustomWeather, © 2019

Note: Actual official high and low records may vary slightly from our data, if they occured in-between our weather recording intervals... More about our weather records

Advertising

Bismarck Weather History for the Previous 24 Hours

Scroll right to see more
 ConditionsComfort  
Time TempWeatherWind HumidityBarometerVisibility
8:52 pm
Sat, Oct 19
40 °FClear.No wind77%29.69 "Hg10 mi
7:52 pm50 °FClear.3 mph46%29.67 "Hg10 mi
6:52 pm53 °FPassing clouds.5 mph45%29.65 "Hg10 mi
5:52 pm57 °FHaze.12 mph36%29.65 "Hg6 mi
4:52 pm59 °FPassing clouds.21 mph35%29.64 "Hg10 mi
3:52 pm58 °FSunny.23 mph36%29.63 "Hg10 mi
2:52 pm57 °FSunny.17 mph41%29.64 "Hg10 mi
2:24 pm57 °FSunny.18 mph42%29.63 "Hg10 mi
1:52 pm56 °FSunny.21 mph44%29.65 "Hg10 mi
12:52 pm54 °FScattered clouds.17 mph43%29.67 "Hg10 mi
11:52 am51 °FSunny.21 mph46%29.69 "Hg10 mi
10:52 am47 °FSunny.17 mph54%29.70 "Hg10 mi
9:52 am44 °FPassing clouds.10 mph60%29.71 "Hg10 mi
8:52 am42 °FSunny.13 mph65%29.70 "Hg10 mi
7:52 am41 °FClear.10 mph67%29.70 "Hg10 mi
6:52 am41 °FClear.7 mph67%29.70 "Hg10 mi
5:52 am43 °FClear.12 mph62%29.68 "Hg10 mi
4:52 am42 °FClear.9 mph68%29.67 "Hg10 mi
3:52 am43 °FClear.14 mph65%29.65 "Hg10 mi
2:52 am40 °FClear.3 mph73%29.64 "Hg10 mi
1:52 am40 °FClear.5 mph77%29.63 "Hg10 mi
12:52 am40 °FClear.3 mph80%29.62 "Hg10 mi
11:52 pm
Fri, Oct 18
40 °FClear.No wind80%29.62 "Hg10 mi
10:52 pm41 °FClear.No wind82%29.61 "Hg10 mi
Weather by CustomWeather, © 2019

See weather overview